Weather History for Dayton Wright, OH

Change the Weather History Date:

Monday, January 21, 2013

  Actual Average (KFFO) Record (KFFO)
Temperature  
Mean Temperature 16 °F -  
Max Temperature 23 °F 32 °F 55 °F (2006)
Min Temperature 9 °F 15 °F -4 °F (2000)
Degree Days  
Heating Degree Days 48    
Moisture  
Dew Point 9 °F    
Average Humidity 65    
Maximum Humidity 86    
Minimum Humidity 50    
Precipitation  
Precipitation 0.00 in - - ()
Sea Level Pressure  
Sea Level Pressure 30.12 in    
Wind  
Wind Speed 11 mph (West)    
Max Wind Speed 20 mph    
Max Gust Speed 32 mph    
Visibility 7 miles    
Events Snow    
Averages and records for this station are not official NWS values.
T = Trace of Precipitation, MM = Missing Value Source: NWS Daily Summary

Daily Weather History Graph

Daily Weather History Graph

Search for Another Location

Airport:

Trip Planner

Search our weather history database for the weather conditions in past years. The results will help you decide how hot, cold, wet, or windy it might be!

Date:

Astronomy

Jan. 21, 2013 Rise Set
Actual Time 7:52 AM EST 5:44 PM EST
Civil Twilight 7:23 AM EST 6:13 PM EST
Nautical Twilight 6:50 AM EST 6:46 PM EST
Astronomical Twilight 6:18 AM EST 7:18 PM EST
Moon 1:23 PM EST (1/21) 3:20 AM EST (1/21)
Length of Visible Light 10h 49m
Length of Day
9h 51m
Waxing Gibbous, 75% of the Moon is Illuminated
Jan 21
Waxing Gibbous
Jan 26
Full
Feb 3
Last Quarter
Feb 10
New
Feb 17
First Quarter

Hourly Weather History & Observations

Time (EST) Temp. Windchill Dew Point Humidity Pressure Visibility Wind Dir Wind Speed Gust Speed Precip Events Conditions
12:53 AM 23.0 °F 14.7 °F 12.0 °F 63% 30.17 in 10.0 mi WNW 6.9 mph - N/A   Overcast
1:53 AM 23.0 °F 14.7 °F 12.0 °F 63% 30.15 in 10.0 mi West 6.9 mph - N/A   Overcast
2:53 AM 23.0 °F 14.7 °F 12.0 °F 63% 30.14 in 10.0 mi West 6.9 mph - N/A   Overcast
3:53 AM 23.0 °F 14.7 °F 12.0 °F 63% 30.13 in 10.0 mi West 6.9 mph - N/A   Overcast
4:53 AM 23.0 °F 14.7 °F 12.0 °F 63% 30.12 in 10.0 mi West 6.9 mph - N/A   Overcast
5:53 AM 23.0 °F 12.4 °F 12.0 °F 63% 30.12 in 10.0 mi West 10.4 mph - N/A   Overcast
6:14 AM 21.2 °F 13.6 °F 12.2 °F 68% 30.08 in 10.0 mi West 5.8 mph - N/A   Overcast
6:53 AM 21.9 °F 11.0 °F 12.0 °F 66% 30.10 in 10.0 mi West 10.4 mph - N/A   Overcast
7:53 AM 21.9 °F 11.0 °F 12.0 °F 66% 30.11 in 10.0 mi West 10.4 mph - N/A   Overcast
8:53 AM 21.0 °F 10.6 °F 12.9 °F 71% 30.12 in 6.0 mi West 9.2 mph - 0.00 in Snow Light Snow
9:10 AM 21.2 °F 10.9 °F 12.2 °F 68% 30.07 in 9.0 mi WNW 9.2 mph - 0.00 in   Overcast
9:28 AM 21.2 °F 8.9 °F 12.2 °F 68% 30.07 in 4.0 mi West 12.7 mph 19.6 mph 0.00 in Snow Light Snow
9:53 AM 21.0 °F 8.6 °F 15.1 °F 78% 30.11 in 3.0 mi West 12.7 mph 17.3 mph 0.00 in Snow Light Snow
10:53 AM 21.9 °F 9.8 °F 10.9 °F 63% 30.11 in 10.0 mi West 12.7 mph 20.7 mph 0.00 in   Overcast
11:09 AM 21.2 °F 8.3 °F 10.4 °F 63% 30.07 in 10.0 mi West 13.8 mph 19.6 mph N/A   Overcast
11:19 AM 21.2 °F 9.5 °F 12.2 °F 68% 30.07 in 3.0 mi West 11.5 mph 24.2 mph 0.00 in Snow Light Snow
11:44 AM 21.2 °F 7.3 °F 12.2 °F 68% 30.07 in 9.0 mi West 16.1 mph 21.9 mph 0.00 in   Overcast
11:53 AM 21.0 °F 8.1 °F 12.9 °F 71% 30.11 in 7.0 mi West 13.8 mph 24.2 mph 0.00 in Snow Light Snow
11:57 AM 21.2 °F 8.3 °F 14.0 °F 74% 30.06 in 1.8 mi WNW 13.8 mph 20.7 mph 0.00 in Snow Light Snow
12:05 PM 19.4 °F 4.5 °F 15.8 °F 86% 30.06 in 1.2 mi WNW 17.3 mph 21.9 mph 0.00 in Snow Light Snow
12:14 PM 19.4 °F 5.0 °F 14.0 °F 80% 30.06 in 3.0 mi WNW 16.1 mph 25.3 mph 0.00 in Snow Light Snow
12:31 PM 23.0 °F 8.3 °F 6.8 °F 50% 30.06 in 10.0 mi West 19.6 mph 32.2 mph 0.00 in   Mostly Cloudy
12:53 PM 19.9 °F 7.9 °F 12.0 °F 71% 30.10 in 8.0 mi West 11.5 mph - 0.00 in Snow Light Snow
1:10 PM 19.4 °F 4.5 °F 12.2 °F 74% 30.06 in 1.5 mi WNW 17.3 mph 26.5 mph 0.00 in Snow Light Snow
1:19 PM 19.4 °F 6.6 °F 10.4 °F 68% 30.06 in 2.0 mi West 12.7 mph 26.5 mph 0.00 in Snow Light Snow
1:26 PM 19.4 °F 5.5 °F 8.6 °F 63% 30.06 in 9.0 mi West 15.0 mph 25.3 mph 0.00 in   Overcast
1:41 PM 19.4 °F 5.0 °F 10.4 °F 68% 30.06 in 2.5 mi West 16.1 mph 25.3 mph 0.00 in Snow Light Snow
1:47 PM 19.4 °F 4.5 °F 10.4 °F 68% 30.06 in 1.5 mi WNW 17.3 mph 24.2 mph 0.00 in Snow Light Snow
1:53 PM 18.0 °F 3.6 °F 12.0 °F 78% 30.11 in 1.0 mi WNW 15.0 mph 23.0 mph 0.00 in Snow Light Snow
2:03 PM 17.6 °F 3.2 °F 10.4 °F 73% 30.06 in 3.0 mi WNW 15.0 mph - 0.00 in Snow Light Snow
2:53 PM 19.0 °F 5.0 °F 5.0 °F 54% 30.11 in 10.0 mi WNW 15.0 mph 24.2 mph 0.00 in   Overcast
3:53 PM 18.0 °F 3.1 °F 5.0 °F 57% 30.14 in 10.0 mi WNW 16.1 mph 21.9 mph N/A   Overcast
4:53 PM 17.1 °F 3.0 °F 3.0 °F 54% 30.16 in 10.0 mi West 13.8 mph 23.0 mph N/A   Mostly Cloudy
5:53 PM 15.1 °F 1.1 °F 3.0 °F 59% 30.17 in 10.0 mi West 12.7 mph - N/A   Scattered Clouds
6:53 PM 12.9 °F -1.6 °F 1.0 °F 59% 30.20 in 10.0 mi WNW 12.7 mph 24.2 mph N/A   Clear
7:53 PM 10.9 °F -4.1 °F -0.9 °F 59% 30.20 in 10.0 mi WNW 12.7 mph 24.2 mph N/A   Clear
8:53 PM 10.9 °F -4.7 °F -0.0 °F 61% 30.22 in 10.0 mi West 13.8 mph 20.7 mph N/A   Clear
9:53 PM 10.9 °F -5.4 °F -2.9 °F 54% 30.24 in 10.0 mi West 15.0 mph 26.5 mph N/A   Clear
10:53 PM 10.0 °F -5.9 °F -4.0 °F 53% 30.25 in 10.0 mi West 13.8 mph 20.7 mph N/A   Clear
11:53 PM 9.0 °F -5.1 °F -4.0 °F 56% 30.26 in 10.0 mi West 10.4 mph - N/A   Clear